Location: Madrid
(40.4000°N, 3.6830°W)
Time: 03:01:14
(UTC+02:00)

ISS - Pass Details

Date: 20 May 2019
Orbit: 408 x 418 km, 51.6° (Epoch: 26 May)

Event Time Altitude Azimuth Distance (km) Brightness Sun altitude
Rises 22:38:02 0° 244° (WSW) 2,336 0.4 -11.8°
Reaches altitude 10° 22:40:08 10° 249° (WSW) 1,479 -0.6 -12.1°
Maximum altitude 22:43:23 52° 327° (NNW) 521 -2.9 -12.6°
Drops below altitude 10° 22:46:40 10° 45° (NE) 1,492 -1.0 -13.1°
Sets 22:48:49 0° 51° (NE) 2,359 0.0 -13.4°
